Year,Month,Day,Hour,Minute,Value (Times are PST for temperature in C)
2013,08,10,00,00,18.60
2013,08,10,00,01,18.50
2013,08,10,00,02,18.50
2013,08,10,00,03,18.50
2013,08,10,00,04,18.40
2013,08,10,00,05,18.40
2013,08,10,00,06,18.40
2013,08,10,00,07,18.40
2013,08,10,00,08,18.30
2013,08,10,00,09,18.30
2013,08,10,00,10,18.30
2013,08,10,00,11,18.30
2013,08,10,00,12,18.30
2013,08,10,00,13,18.30
2013,08,10,00,14,18.20
2013,08,10,00,15,18.20
2013,08,10,00,16,18.20
2013,08,10,00,17,18.20
2013,08,10,00,18,18.20
2013,08,10,00,19,18.10
2013,08,10,00,20,18.10
2013,08,10,00,21,18.10
2013,08,10,00,22,18.10
2013,08,10,00,23,18.10
2013,08,10,00,24,18.10
2013,08,10,00,25,18.10
2013,08,10,00,26,18.10
2013,08,10,00,27,18.10
2013,08,10,00,28,18.10
2013,08,10,00,29,18.10
2013,08,10,00,30,18.10
2013,08,10,00,31,18.00
2013,08,10,00,32,18.00
2013,08,10,00,33,18.00
2013,08,10,00,34,18.00
2013,08,10,00,35,17.90
2013,08,10,00,36,17.90
2013,08,10,00,37,17.90
2013,08,10,00,38,17.90
2013,08,10,00,39,17.90
2013,08,10,00,40,17.80
2013,08,10,00,41,17.80
2013,08,10,00,42,17.80
2013,08,10,00,43,17.80
2013,08,10,00,44,17.70
2013,08,10,00,45,17.70
2013,08,10,00,46,17.70
2013,08,10,00,47,17.70
2013,08,10,00,48,17.70
2013,08,10,00,49,17.60
2013,08,10,00,50,17.60
2013,08,10,00,51,17.60
2013,08,10,00,52,17.60
2013,08,10,00,53,17.60
2013,08,10,00,54,17.60
2013,08,10,00,55,17.60
2013,08,10,00,56,17.60
2013,08,10,00,57,17.60
2013,08,10,00,58,17.60
2013,08,10,00,59,17.60
2013,08,10,01,00,17.60
2013,08,10,01,01,17.50
2013,08,10,01,02,17.50
2013,08,10,01,03,17.50
2013,08,10,01,04,17.50
2013,08,10,01,05,17.40
2013,08,10,01,06,17.40
2013,08,10,01,07,17.40
2013,08,10,01,08,17.40
2013,08,10,01,09,17.40
2013,08,10,01,10,17.40
2013,08,10,01,11,17.40
2013,08,10,01,12,17.40
2013,08,10,01,13,17.30
2013,08,10,01,14,17.30
2013,08,10,01,15,17.30
2013,08,10,01,16,17.30
2013,08,10,01,17,17.30
2013,08,10,01,18,17.30
2013,08,10,01,19,17.30
2013,08,10,01,20,17.30
2013,08,10,01,21,17.30
2013,08,10,01,22,17.30
2013,08,10,01,23,17.30
2013,08,10,01,24,17.30
2013,08,10,01,25,17.30
2013,08,10,01,26,17.30
2013,08,10,01,27,17.30
2013,08,10,01,28,17.30
2013,08,10,01,29,17.30
2013,08,10,01,30,17.30
2013,08,10,01,31,17.30
2013,08,10,01,32,17.30
2013,08,10,01,33,17.30
2013,08,10,01,34,17.30
2013,08,10,01,35,17.30
2013,08,10,01,36,17.30
2013,08,10,01,37,17.30
2013,08,10,01,38,17.30
2013,08,10,01,39,17.30
2013,08,10,01,40,17.30
2013,08,10,01,41,17.30
2013,08,10,01,42,17.30
2013,08,10,01,43,17.30
2013,08,10,01,44,17.30
2013,08,10,01,45,17.30
2013,08,10,01,46,17.30
2013,08,10,01,47,17.30
2013,08,10,01,48,17.30
2013,08,10,01,49,17.30
2013,08,10,01,50,17.40
2013,08,10,01,51,17.40
2013,08,10,01,52,17.40
2013,08,10,01,53,17.40
2013,08,10,01,54,17.40
2013,08,10,01,55,17.40
2013,08,10,01,56,17.40
2013,08,10,01,57,17.40
2013,08,10,01,58,17.40
2013,08,10,01,59,17.40
2013,08,10,02,00,17.40
2013,08,10,02,01,17.30
2013,08,10,02,02,17.30
2013,08,10,02,03,17.30
2013,08,10,02,04,17.30
2013,08,10,02,05,17.20
2013,08,10,02,06,17.20
2013,08,10,02,07,17.20
2013,08,10,02,08,17.20
2013,08,10,02,09,17.10
2013,08,10,02,10,17.10
2013,08,10,02,11,17.10
2013,08,10,02,12,17.10
2013,08,10,02,13,17.10
2013,08,10,02,14,17.00
2013,08,10,02,15,17.00
2013,08,10,02,16,17.00
2013,08,10,02,17,17.00
2013,08,10,02,18,17.00
2013,08,10,02,19,17.00
2013,08,10,02,20,17.00
2013,08,10,02,21,17.00
2013,08,10,02,22,17.00
2013,08,10,02,23,16.90
2013,08,10,02,24,16.90
2013,08,10,02,25,16.90
2013,08,10,02,26,16.90
2013,08,10,02,27,16.90
2013,08,10,02,28,16.80
2013,08,10,02,29,16.80
2013,08,10,02,30,16.80
2013,08,10,02,31,16.80
2013,08,10,02,32,16.80
2013,08,10,02,33,16.80
2013,08,10,02,34,16.80
2013,08,10,02,35,16.80
2013,08,10,02,36,16.80
2013,08,10,02,37,16.80
2013,08,10,02,38,16.70
2013,08,10,02,39,16.70
2013,08,10,02,40,16.70
2013,08,10,02,41,16.70
2013,08,10,02,42,16.70
2013,08,10,02,43,16.70
2013,08,10,02,44,16.70
2013,08,10,02,45,16.70
2013,08,10,02,46,16.70
2013,08,10,02,47,16.70
2013,08,10,02,48,16.70
2013,08,10,02,49,16.70
2013,08,10,02,50,16.60
2013,08,10,02,51,16.60
2013,08,10,02,52,16.60
2013,08,10,02,53,16.60
2013,08,10,02,54,16.60
2013,08,10,02,55,16.60
2013,08,10,02,56,16.60
2013,08,10,02,57,16.60
2013,08,10,02,58,16.50
2013,08,10,02,59,16.50
2013,08,10,03,00,16.50
2013,08,10,03,01,16.50
2013,08,10,03,02,16.50
2013,08,10,03,03,16.50
2013,08,10,03,06,16.40
2013,08,10,03,07,16.40
2013,08,10,03,08,16.40
2013,08,10,03,09,16.40
2013,08,10,03,10,16.40
2013,08,10,03,11,16.40
2013,08,10,03,12,16.40
2013,08,10,03,13,16.40
2013,08,10,03,14,16.40
2013,08,10,03,15,16.40
2013,08,10,03,16,16.30
2013,08,10,03,17,16.30
2013,08,10,03,18,16.30
2013,08,10,03,19,16.20
2013,08,10,03,20,16.20
2013,08,10,03,21,16.20
2013,08,10,03,22,16.20
2013,08,10,03,23,16.20
2013,08,10,03,24,16.10
2013,08,10,03,25,16.10
2013,08,10,03,26,16.10
2013,08,10,03,27,16.10
2013,08,10,03,28,16.10
2013,08,10,03,29,16.10
2013,08,10,03,30,16.00
2013,08,10,03,31,16.00
2013,08,10,03,32,16.00
2013,08,10,03,33,16.00
2013,08,10,03,34,16.00
2013,08,10,03,35,16.00
2013,08,10,03,36,16.00
2013,08,10,03,37,16.00
2013,08,10,03,38,15.90
2013,08,10,03,39,15.90
2013,08,10,03,40,16.00
2013,08,10,03,41,15.90
2013,08,10,03,42,15.90
2013,08,10,03,43,15.90
2013,08,10,03,44,15.90
2013,08,10,03,45,15.90
2013,08,10,03,46,15.80
2013,08,10,03,47,15.80
2013,08,10,03,48,15.70
2013,08,10,03,49,15.70
2013,08,10,03,50,15.60
2013,08,10,03,51,15.60
2013,08,10,03,52,15.60
2013,08,10,03,53,15.50
2013,08,10,03,54,15.50
2013,08,10,03,55,15.40
2013,08,10,03,56,15.40
2013,08,10,03,57,15.40
2013,08,10,03,58,15.30
2013,08,10,03,59,15.30
2013,08,10,04,00,15.30
2013,08,10,04,01,15.30
2013,08,10,04,02,15.30
2013,08,10,04,03,15.30
2013,08,10,04,04,15.30
2013,08,10,04,05,15.30
2013,08,10,04,06,15.30
2013,08,10,04,07,15.30
2013,08,10,04,08,15.20
2013,08,10,04,09,15.20
2013,08,10,04,10,15.20
2013,08,10,04,11,15.20
2013,08,10,04,12,15.20
2013,08,10,04,13,15.20
2013,08,10,04,14,15.20
2013,08,10,04,15,15.20
2013,08,10,04,16,15.20
2013,08,10,04,17,15.20
2013,08,10,04,18,15.20
2013,08,10,04,19,15.20
2013,08,10,04,20,15.20
2013,08,10,04,21,15.10
2013,08,10,04,22,15.10
2013,08,10,04,23,15.10
2013,08,10,04,24,15.10
2013,08,10,04,25,15.10
2013,08,10,04,26,15.10
2013,08,10,04,27,15.10
2013,08,10,04,28,15.10
2013,08,10,04,29,15.10
2013,08,10,04,30,15.00
2013,08,10,04,31,15.00
2013,08,10,04,32,15.00
2013,08,10,04,33,15.00
2013,08,10,04,34,15.00
2013,08,10,04,35,15.00
2013,08,10,04,36,14.90
2013,08,10,04,37,14.90
2013,08,10,04,38,14.90
2013,08,10,04,39,14.90
2013,08,10,04,40,14.90
2013,08,10,04,41,14.90
2013,08,10,04,42,14.80
2013,08,10,04,43,14.80
2013,08,10,04,44,14.80
2013,08,10,04,45,14.80
2013,08,10,04,46,14.80
2013,08,10,04,47,14.80
2013,08,10,04,48,14.80
2013,08,10,04,49,14.80
2013,08,10,04,50,14.80
2013,08,10,04,51,14.80
2013,08,10,04,52,14.80
2013,08,10,04,53,14.80
2013,08,10,04,54,14.70
2013,08,10,04,55,14.70
2013,08,10,04,56,14.70
2013,08,10,04,57,14.70
2013,08,10,04,58,14.70
2013,08,10,04,59,14.60
2013,08,10,05,00,14.60
2013,08,10,05,01,14.60
2013,08,10,05,02,14.60
2013,08,10,05,03,14.60
2013,08,10,05,04,14.60
2013,08,10,05,05,14.60
2013,08,10,05,06,14.60
2013,08,10,05,07,14.50
2013,08,10,05,08,14.50
2013,08,10,05,09,14.50
2013,08,10,05,10,14.50
2013,08,10,05,11,14.50
2013,08,10,05,12,14.40
2013,08,10,05,13,14.40
2013,08,10,05,14,14.40
2013,08,10,05,15,14.40
2013,08,10,05,16,14.40
2013,08,10,05,17,14.40
2013,08,10,05,18,14.40
2013,08,10,05,19,14.40
2013,08,10,05,20,14.40
2013,08,10,05,21,14.40
2013,08,10,05,22,14.40
2013,08,10,05,23,14.40
2013,08,10,05,24,14.40
2013,08,10,05,25,14.40
2013,08,10,05,26,14.40
2013,08,10,05,27,14.30
2013,08,10,05,28,14.30
2013,08,10,05,29,14.30
2013,08,10,05,30,14.30
2013,08,10,05,31,14.30
2013,08,10,05,32,14.20
2013,08,10,05,33,14.20
2013,08,10,05,34,14.20
2013,08,10,05,35,14.20
2013,08,10,05,36,14.20
2013,08,10,05,37,14.20
2013,08,10,05,38,14.10
2013,08,10,05,39,14.10
2013,08,10,05,40,14.10
2013,08,10,05,41,14.10
2013,08,10,05,42,14.10
2013,08,10,05,43,14.10
2013,08,10,05,44,14.10
2013,08,10,05,45,14.10
2013,08,10,05,46,14.10
2013,08,10,05,47,14.10
2013,08,10,05,48,14.10
2013,08,10,05,49,14.10
2013,08,10,05,50,14.10
2013,08,10,05,51,14.10
2013,08,10,05,52,14.10
2013,08,10,05,53,14.10
2013,08,10,05,54,14.00
2013,08,10,05,55,14.00
2013,08,10,05,56,14.00
2013,08,10,05,57,14.00
2013,08,10,05,58,14.00
2013,08,10,05,59,14.00
2013,08,10,06,00,14.00
2013,08,10,06,01,14.00
2013,08,10,06,02,14.00
2013,08,10,06,03,14.00
2013,08,10,06,04,14.00
2013,08,10,06,05,14.00
2013,08,10,06,06,14.00
2013,08,10,06,07,14.00
2013,08,10,06,08,14.00
2013,08,10,06,09,14.00
2013,08,10,06,10,14.00
2013,08,10,06,11,13.90
2013,08,10,06,12,13.90
2013,08,10,06,13,13.90
2013,08,10,06,14,13.90
2013,08,10,06,15,13.90
2013,08,10,06,16,13.90
2013,08,10,06,17,13.90
2013,08,10,06,18,13.90
2013,08,10,06,19,13.90
2013,08,10,06,20,13.90
2013,08,10,06,21,13.90
2013,08,10,06,22,13.90
2013,08,10,06,23,13.90
2013,08,10,06,24,13.90
2013,08,10,06,25,13.90
2013,08,10,06,26,13.90
2013,08,10,06,27,13.90
2013,08,10,06,28,13.90
2013,08,10,06,29,13.90
2013,08,10,06,30,13.90
2013,08,10,06,31,13.90
2013,08,10,06,32,13.90
2013,08,10,06,33,13.90
2013,08,10,06,34,13.90
2013,08,10,06,35,13.90
2013,08,10,06,36,13.90
2013,08,10,06,37,13.90
2013,08,10,06,38,13.90
2013,08,10,06,39,13.90
2013,08,10,06,40,13.90
2013,08,10,06,41,13.90
2013,08,10,06,42,13.90
2013,08,10,06,43,13.90
2013,08,10,06,44,13.90
2013,08,10,06,45,13.90
2013,08,10,06,46,13.90
2013,08,10,06,47,13.90
2013,08,10,06,48,13.90
2013,08,10,06,49,13.90
2013,08,10,06,50,13.90
2013,08,10,06,51,13.90
2013,08,10,06,52,13.90
2013,08,10,06,53,13.90
2013,08,10,06,54,13.90
2013,08,10,06,55,13.90
2013,08,10,06,56,13.90
2013,08,10,06,57,13.90
2013,08,10,06,58,13.90
2013,08,10,06,59,13.90
2013,08,10,07,00,13.90
2013,08,10,07,01,13.90
2013,08,10,07,02,13.90
2013,08,10,07,03,13.90
2013,08,10,07,04,13.90
2013,08,10,07,05,13.90
2013,08,10,07,06,13.90
2013,08,10,07,07,14.00
2013,08,10,07,08,14.00
2013,08,10,07,09,14.00
2013,08,10,07,10,14.00
2013,08,10,07,11,14.00
2013,08,10,07,12,14.00
2013,08,10,07,13,14.00
2013,08,10,07,14,14.00
2013,08,10,07,15,14.00
2013,08,10,07,16,14.00
2013,08,10,07,17,14.00
2013,08,10,07,18,14.10
2013,08,10,07,19,14.10
2013,08,10,07,20,14.10
2013,08,10,07,21,14.10
2013,08,10,07,22,14.20
2013,08,10,07,23,14.20
2013,08,10,07,24,14.30
2013,08,10,07,25,14.30
2013,08,10,07,26,14.30
2013,08,10,07,27,14.40
2013,08,10,07,28,14.40
2013,08,10,07,29,14.50
2013,08,10,07,30,14.50
2013,08,10,07,31,14.60
2013,08,10,07,32,14.60
2013,08,10,07,33,14.60
2013,08,10,07,34,14.70
2013,08,10,07,35,14.70
2013,08,10,07,36,14.80
2013,08,10,07,37,14.90
2013,08,10,07,38,14.90
2013,08,10,07,39,15.00
2013,08,10,07,40,15.00
2013,08,10,07,41,15.10
2013,08,10,07,42,15.10
2013,08,10,07,43,15.10
2013,08,10,07,44,15.10
2013,08,10,07,45,15.10
2013,08,10,07,46,15.10
2013,08,10,07,47,15.10
2013,08,10,07,48,15.10
2013,08,10,07,49,15.10
2013,08,10,07,50,15.10
2013,08,10,07,51,15.20
2013,08,10,07,52,15.20
2013,08,10,07,53,15.20
2013,08,10,07,54,15.20
2013,08,10,07,55,15.20
2013,08,10,07,56,15.20
2013,08,10,07,57,15.20
2013,08,10,07,58,15.20
2013,08,10,07,59,15.20
2013,08,10,08,00,15.10
2013,08,10,08,01,15.10
2013,08,10,08,02,15.20
2013,08,10,08,03,15.20
2013,08,10,08,04,15.20
2013,08,10,08,05,15.20
2013,08,10,08,06,15.30
2013,08,10,08,07,15.30
2013,08,10,08,08,15.30
2013,08,10,08,09,15.30
2013,08,10,08,10,15.30
2013,08,10,08,11,15.40
2013,08,10,08,12,15.40
2013,08,10,08,13,15.50
2013,08,10,08,14,15.60
2013,08,10,08,15,15.70
2013,08,10,08,16,15.70
2013,08,10,08,17,15.80
2013,08,10,08,18,15.80
2013,08,10,08,19,15.90
2013,08,10,08,20,15.90
2013,08,10,08,21,16.00
2013,08,10,08,22,16.00
2013,08,10,08,23,16.10
2013,08,10,08,24,16.10
2013,08,10,08,25,16.20
2013,08,10,08,26,16.20
2013,08,10,08,27,16.30
2013,08,10,08,28,16.40
2013,08,10,08,29,16.40
2013,08,10,08,30,16.50
2013,08,10,08,31,16.60
2013,08,10,08,32,16.60
2013,08,10,08,33,16.70
2013,08,10,08,34,16.70
2013,08,10,08,35,16.80
2013,08,10,08,36,16.80
2013,08,10,08,37,16.90
2013,08,10,08,38,17.00
2013,08,10,08,39,17.00
2013,08,10,08,40,17.10
2013,08,10,08,41,17.10
2013,08,10,08,42,17.20
2013,08,10,08,43,17.30
2013,08,10,08,44,17.30
2013,08,10,08,45,17.40
2013,08,10,08,46,17.40
2013,08,10,08,47,17.40
2013,08,10,08,48,17.40
2013,08,10,08,49,17.40
2013,08,10,08,50,17.40
2013,08,10,08,51,17.40
2013,08,10,08,52,17.40
2013,08,10,08,53,17.40
2013,08,10,08,54,17.40
2013,08,10,08,55,17.40
2013,08,10,08,56,17.50
2013,08,10,08,57,17.50
2013,08,10,08,58,17.50
2013,08,10,08,59,17.60
2013,08,10,09,00,17.60
2013,08,10,09,01,17.50
2013,08,10,09,02,17.50
2013,08,10,09,03,17.40
2013,08,10,09,04,17.40
2013,08,10,09,05,17.40
2013,08,10,09,06,17.40
2013,08,10,09,07,17.40
2013,08,10,09,08,17.40
2013,08,10,09,09,17.40
2013,08,10,09,10,17.40
2013,08,10,09,11,17.40
2013,08,10,09,12,17.40
2013,08,10,09,13,17.50
2013,08,10,09,14,17.50
2013,08,10,09,15,17.50
2013,08,10,09,16,17.50
2013,08,10,09,17,17.50
2013,08,10,09,18,17.50
2013,08,10,09,19,17.50
2013,08,10,09,20,17.50
2013,08,10,09,21,17.50
2013,08,10,09,22,17.50
2013,08,10,09,23,17.60
2013,08,10,09,24,17.60
2013,08,10,09,25,17.60
2013,08,10,09,26,17.60
2013,08,10,09,27,17.60
2013,08,10,09,28,17.70
2013,08,10,09,29,17.70
2013,08,10,09,30,17.70
2013,08,10,09,31,17.70
2013,08,10,09,32,17.70
2013,08,10,09,33,17.70
2013,08,10,09,34,17.70
2013,08,10,09,35,17.70
2013,08,10,09,36,17.70
2013,08,10,09,37,17.70
2013,08,10,09,38,17.70
2013,08,10,09,39,17.70
2013,08,10,09,40,17.80
2013,08,10,09,41,17.80
2013,08,10,09,42,17.80
2013,08,10,09,43,17.90
2013,08,10,09,44,17.90
2013,08,10,09,45,17.90
2013,08,10,09,46,17.90
2013,08,10,09,47,18.00
2013,08,10,09,48,18.10
2013,08,10,09,49,18.20
2013,08,10,09,50,18.20
2013,08,10,09,51,18.30
2013,08,10,09,52,18.40
2013,08,10,09,53,18.40
2013,08,10,09,54,18.50
2013,08,10,09,55,18.60
2013,08,10,09,56,18.70
2013,08,10,09,57,18.70
2013,08,10,09,58,18.70
2013,08,10,09,59,18.70
2013,08,10,10,00,19.10
2013,08,10,10,01,19.20
2013,08,10,10,02,19.20
2013,08,10,10,03,19.30
2013,08,10,10,04,19.40
2013,08,10,10,05,19.50
2013,08,10,10,06,19.50
2013,08,10,10,07,19.60
2013,08,10,10,08,19.70
2013,08,10,10,09,19.80
2013,08,10,10,10,19.80
2013,08,10,10,11,19.80
2013,08,10,10,12,19.90
2013,08,10,10,13,19.90
2013,08,10,10,14,19.90
2013,08,10,10,15,19.90
2013,08,10,10,16,19.90
2013,08,10,10,17,19.90
2013,08,10,10,18,19.90
2013,08,10,10,19,19.90
2013,08,10,10,20,19.90
2013,08,10,10,21,20.00
2013,08,10,10,22,20.00
2013,08,10,10,23,20.10
2013,08,10,10,24,20.10
2013,08,10,10,25,20.10
2013,08,10,10,26,20.20
2013,08,10,10,27,20.20
2013,08,10,10,28,20.10
2013,08,10,10,29,20.10
2013,08,10,10,30,20.10
2013,08,10,10,31,20.10
2013,08,10,10,32,20.20
2013,08,10,10,33,20.20
2013,08,10,10,34,20.20
2013,08,10,10,35,20.20
2013,08,10,10,36,20.30
2013,08,10,10,37,20.30
2013,08,10,10,38,20.30
2013,08,10,10,39,20.30
2013,08,10,10,40,20.30
2013,08,10,10,41,20.40
2013,08,10,10,42,20.40
2013,08,10,10,43,20.50
2013,08,10,10,44,20.60
2013,08,10,10,45,20.70
2013,08,10,10,46,20.80
2013,08,10,10,47,20.80
2013,08,10,10,48,20.80
2013,08,10,10,49,20.70
2013,08,10,10,50,20.70
2013,08,10,10,51,20.70
2013,08,10,10,52,20.80
2013,08,10,10,53,20.90
2013,08,10,10,54,20.90
2013,08,10,10,55,21.00
2013,08,10,10,56,21.00
2013,08,10,10,57,21.00
2013,08,10,10,58,21.00
2013,08,10,10,59,21.00
2013,08,10,11,00,20.90
2013,08,10,11,01,20.90
2013,08,10,11,02,20.80
2013,08,10,11,03,20.80
2013,08,10,11,04,20.80
2013,08,10,11,05,20.80
2013,08,10,11,06,20.80
2013,08,10,11,07,20.80
2013,08,10,11,08,20.80
2013,08,10,11,09,20.80
2013,08,10,11,10,20.90
2013,08,10,11,11,21.00
2013,08,10,11,12,21.10
2013,08,10,11,13,21.20
2013,08,10,11,14,21.20
2013,08,10,11,15,21.20
2013,08,10,11,16,21.30
2013,08,10,11,17,21.40
2013,08,10,11,18,21.40
2013,08,10,11,19,21.50
2013,08,10,11,20,21.50
2013,08,10,11,21,21.50
2013,08,10,11,22,21.60
2013,08,10,11,23,21.60
2013,08,10,11,24,21.70
2013,08,10,11,25,21.70
2013,08,10,11,26,21.80
2013,08,10,11,27,21.90
2013,08,10,11,28,22.00
2013,08,10,11,29,22.10
2013,08,10,11,30,22.10
2013,08,10,11,31,22.30
2013,08,10,11,32,22.30
2013,08,10,11,33,22.30
2013,08,10,11,34,22.30
2013,08,10,11,35,22.30
2013,08,10,11,36,22.30
2013,08,10,11,37,22.30
2013,08,10,11,38,22.20
2013,08,10,11,39,22.20
2013,08,10,11,40,22.20
2013,08,10,11,41,22.20
2013,08,10,11,42,22.20
2013,08,10,11,43,22.30
2013,08,10,11,44,22.30
2013,08,10,11,45,22.40
2013,08,10,11,46,22.40
2013,08,10,11,47,22.40
2013,08,10,11,48,22.40
2013,08,10,11,49,22.40
2013,08,10,11,50,22.40
2013,08,10,11,51,22.40
2013,08,10,11,52,22.40
2013,08,10,11,53,22.40
2013,08,10,11,54,22.50
2013,08,10,11,55,22.60
2013,08,10,11,56,22.50
2013,08,10,11,57,22.50
2013,08,10,11,58,22.40
2013,08,10,11,59,22.40
2013,08,10,12,00,22.40
2013,08,10,12,01,22.30
2013,08,10,12,02,22.30
2013,08,10,12,03,22.30
2013,08,10,12,04,22.40
2013,08,10,12,05,22.40
2013,08,10,12,06,22.40
2013,08,10,12,07,22.40
2013,08,10,12,08,22.40
2013,08,10,12,09,22.40
2013,08,10,12,10,22.40
2013,08,10,12,11,22.40
2013,08,10,12,12,22.40
2013,08,10,12,13,22.30
2013,08,10,12,14,22.20
2013,08,10,12,15,22.20
2013,08,10,12,16,22.20
2013,08,10,12,17,22.10
2013,08,10,12,18,22.10
2013,08,10,12,19,22.10
2013,08,10,12,20,22.10
2013,08,10,12,21,22.10
2013,08,10,12,22,22.10
2013,08,10,12,23,22.10
2013,08,10,12,24,22.00
2013,08,10,12,25,21.90
2013,08,10,12,26,21.90
2013,08,10,12,27,21.80
2013,08,10,12,28,21.70
2013,08,10,12,29,21.70
2013,08,10,12,30,21.70
2013,08,10,12,31,21.70
2013,08,10,12,32,21.70
2013,08,10,12,33,21.70
2013,08,10,12,34,21.70
2013,08,10,12,35,21.60
2013,08,10,12,36,21.60
2013,08,10,12,37,21.60
2013,08,10,12,38,21.60
2013,08,10,12,39,21.70
2013,08,10,12,40,21.70
2013,08,10,12,41,21.80
2013,08,10,12,42,21.70
2013,08,10,12,43,21.60
2013,08,10,12,44,21.60
2013,08,10,12,45,21.60
2013,08,10,12,46,21.60
2013,08,10,12,47,21.60
2013,08,10,12,48,21.60
2013,08,10,12,49,21.60
2013,08,10,12,50,21.60
2013,08,10,12,51,21.60
2013,08,10,12,52,21.60
2013,08,10,12,53,21.60
2013,08,10,12,54,21.60
2013,08,10,12,55,21.70
2013,08,10,12,56,21.70
2013,08,10,12,57,21.60
2013,08,10,12,58,21.50
2013,08,10,12,59,21.50
2013,08,10,13,00,21.50
2013,08,10,13,01,21.60
2013,08,10,13,02,21.60
2013,08,10,13,03,21.60
2013,08,10,13,04,21.60
2013,08,10,13,05,21.60
2013,08,10,13,06,21.60
2013,08,10,13,07,21.60
2013,08,10,13,08,21.70
2013,08,10,13,09,21.60
2013,08,10,13,10,21.60
2013,08,10,13,11,21.60
2013,08,10,13,12,21.70
2013,08,10,13,13,21.70
2013,08,10,13,14,21.60
2013,08,10,13,15,21.50
2013,08,10,13,16,21.50
2013,08,10,13,17,21.40
2013,08,10,13,18,21.40
2013,08,10,13,19,21.40
2013,08,10,13,20,21.40
2013,08,10,13,21,21.40
2013,08,10,13,22,21.50
2013,08,10,13,23,21.50
2013,08,10,13,24,21.50
2013,08,10,13,25,21.60
2013,08,10,13,26,21.60
2013,08,10,13,27,21.60
2013,08,10,13,28,21.60
2013,08,10,13,29,21.60
2013,08,10,13,30,21.60
2013,08,10,13,31,21.60
2013,08,10,13,32,21.50
2013,08,10,13,33,21.40
2013,08,10,13,34,21.30
2013,08,10,13,35,21.20
2013,08,10,13,36,21.00
2013,08,10,13,37,20.90
2013,08,10,13,38,20.80
2013,08,10,13,39,20.80
2013,08,10,13,40,20.80
2013,08,10,13,41,20.80
2013,08,10,13,42,20.80
2013,08,10,13,43,20.80
2013,08,10,13,44,20.80
2013,08,10,13,45,20.80
2013,08,10,13,46,20.80
2013,08,10,13,47,20.80
2013,08,10,13,48,20.90
2013,08,10,13,49,20.90
2013,08,10,13,50,20.90
2013,08,10,13,51,20.90
2013,08,10,13,52,20.90
2013,08,10,13,53,21.00
2013,08,10,13,54,21.00
2013,08,10,13,55,21.10
2013,08,10,13,56,21.10
2013,08,10,13,57,21.20
2013,08,10,13,58,21.20
2013,08,10,13,59,21.30
2013,08,10,14,00,21.30
2013,08,10,14,01,21.40
2013,08,10,14,02,21.50
2013,08,10,14,03,21.60
2013,08,10,14,04,21.70
2013,08,10,14,05,21.70
2013,08,10,14,06,21.70
2013,08,10,14,07,21.70
2013,08,10,14,08,21.70
2013,08,10,14,09,21.60
2013,08,10,14,10,21.40
2013,08,10,14,11,21.40
2013,08,10,14,12,21.30
2013,08,10,14,13,21.40
2013,08,10,14,14,21.40
2013,08,10,14,15,21.40
2013,08,10,14,16,21.40
2013,08,10,14,17,21.40
2013,08,10,14,18,21.40
2013,08,10,14,19,21.40
2013,08,10,14,20,21.50
2013,08,10,14,21,21.40
2013,08,10,14,22,21.40
2013,08,10,14,23,21.30
2013,08,10,14,24,21.30
2013,08,10,14,25,21.30
2013,08,10,14,26,21.30
2013,08,10,14,27,21.30
2013,08,10,14,28,21.30
2013,08,10,14,29,21.30
2013,08,10,14,30,21.30
2013,08,10,14,31,21.30
2013,08,10,14,32,21.30
2013,08,10,14,33,21.30
2013,08,10,14,34,21.30
2013,08,10,14,35,21.40
2013,08,10,14,36,21.40
2013,08,10,14,37,21.40
2013,08,10,14,38,21.40
2013,08,10,14,39,21.40
2013,08,10,14,40,21.40
2013,08,10,14,41,21.40
2013,08,10,14,42,21.40
2013,08,10,14,43,21.40
2013,08,10,14,44,21.30
2013,08,10,14,45,21.30
2013,08,10,14,46,21.20
2013,08,10,14,47,21.20
2013,08,10,14,48,21.10
2013,08,10,14,49,21.10
2013,08,10,14,50,21.00
2013,08,10,14,51,20.90
2013,08,10,14,52,20.90
2013,08,10,14,53,20.80
2013,08,10,14,54,20.80
2013,08,10,14,55,20.80
2013,08,10,14,56,20.80
2013,08,10,14,57,20.80
2013,08,10,14,58,20.80
2013,08,10,14,59,20.80
2013,08,10,15,00,20.80
2013,08,10,15,01,20.80
2013,08,10,15,02,20.80
2013,08,10,15,03,20.80
2013,08,10,15,04,20.80
2013,08,10,15,05,20.70
2013,08,10,15,06,20.70
2013,08,10,15,07,20.60
2013,08,10,15,08,20.50
2013,08,10,15,09,20.50
2013,08,10,15,10,20.50
2013,08,10,15,11,20.50
2013,08,10,15,12,20.50
2013,08,10,15,13,20.50
2013,08,10,15,14,20.50
2013,08,10,15,15,20.50
2013,08,10,15,16,20.50
2013,08,10,15,17,20.50
2013,08,10,15,18,20.50
2013,08,10,15,19,20.50
2013,08,10,15,20,20.50
2013,08,10,15,21,20.50
2013,08,10,15,22,20.50
2013,08,10,15,23,20.50
2013,08,10,15,24,20.50
2013,08,10,15,25,20.40
2013,08,10,15,26,20.40
2013,08,10,15,27,20.40
2013,08,10,15,28,20.40
2013,08,10,15,29,20.50
2013,08,10,15,30,20.50
2013,08,10,15,31,20.60
2013,08,10,15,32,20.60
2013,08,10,15,33,20.60
2013,08,10,15,34,20.70
2013,08,10,15,35,20.70
2013,08,10,15,36,20.70
2013,08,10,15,37,20.80
2013,08,10,15,38,20.80
2013,08,10,15,39,20.90
2013,08,10,15,40,20.90
2013,08,10,15,41,21.00
2013,08,10,15,42,21.00
2013,08,10,15,43,21.00
2013,08,10,15,44,21.00
2013,08,10,15,45,21.10
2013,08,10,15,46,21.10
2013,08,10,15,47,21.10
2013,08,10,15,48,21.10
2013,08,10,15,49,21.20
2013,08,10,15,50,21.20
2013,08,10,15,51,21.30
2013,08,10,15,52,21.30
2013,08,10,15,53,21.30
2013,08,10,15,54,21.20
2013,08,10,15,55,21.20
2013,08,10,15,56,21.20
2013,08,10,15,57,21.20
2013,08,10,15,58,21.20
2013,08,10,15,59,21.10
2013,08,10,16,00,21.10
2013,08,10,16,01,21.00
2013,08,10,16,02,21.00
2013,08,10,16,03,20.90
2013,08,10,16,04,20.90
2013,08,10,16,05,20.80
2013,08,10,16,06,20.70
2013,08,10,16,07,20.70
2013,08,10,16,08,20.60
2013,08,10,16,09,20.60
2013,08,10,16,10,20.60
2013,08,10,16,11,20.60
2013,08,10,16,12,20.60
2013,08,10,16,13,20.50
2013,08,10,16,14,20.50
2013,08,10,16,15,20.50
2013,08,10,16,16,20.40
2013,08,10,16,17,20.40
2013,08,10,16,18,20.40
2013,08,10,16,19,20.40
2013,08,10,16,20,20.40
2013,08,10,16,21,20.40
2013,08,10,16,22,20.40
2013,08,10,16,23,20.30
2013,08,10,16,24,20.30
2013,08,10,16,25,20.30
2013,08,10,16,26,20.30
2013,08,10,16,27,20.30
2013,08,10,16,28,20.30
2013,08,10,16,29,20.30
2013,08,10,16,30,20.30
2013,08,10,16,31,20.30
2013,08,10,16,32,20.40
2013,08,10,16,33,20.40
2013,08,10,16,34,20.40
2013,08,10,16,35,20.50
2013,08,10,16,36,20.60
2013,08,10,16,37,20.60
2013,08,10,16,38,20.60
2013,08,10,16,39,20.60
2013,08,10,16,40,20.60
2013,08,10,16,41,20.50
2013,08,10,16,42,20.60
2013,08,10,16,43,20.50
2013,08,10,16,44,20.50
2013,08,10,16,45,20.40
2013,08,10,16,46,20.40
2013,08,10,16,47,20.40
2013,08,10,16,48,20.40
2013,08,10,16,49,20.40
2013,08,10,16,50,20.40
2013,08,10,16,51,20.40
2013,08,10,16,52,20.50
2013,08,10,16,53,20.50
2013,08,10,16,54,20.50
2013,08,10,16,55,20.50
2013,08,10,16,56,20.50
2013,08,10,16,57,20.50
2013,08,10,16,58,20.50
2013,08,10,16,59,20.40
2013,08,10,17,00,20.40
2013,08,10,17,01,20.40
2013,08,10,17,02,20.50
2013,08,10,17,03,20.50
2013,08,10,17,04,20.50
2013,08,10,17,05,20.60
2013,08,10,17,06,20.60
2013,08,10,17,07,20.50
2013,08,10,17,08,20.50
2013,08,10,17,09,20.50
2013,08,10,17,10,20.60
2013,08,10,17,11,20.60
2013,08,10,17,12,20.60
2013,08,10,17,13,20.60
2013,08,10,17,14,20.70
2013,08,10,17,15,20.80
2013,08,10,17,16,20.80
2013,08,10,17,17,20.80
2013,08,10,17,18,20.80
2013,08,10,17,19,20.90
2013,08,10,17,20,20.90
2013,08,10,17,21,21.00